Hobart, OK

2:32 AM CST on February 27, 2017 (GMT -0600)
Hobart Municipal

Weather History for KHBR - October, 2011

Change the Weather History Date:

Saturday, October 1, 2011

  Actual Average Record
Temperature  
Mean Temperature 66 °F -  
Max Temperature 82 °F 78 °F 96 °F (2014)
Min Temperature 50 °F 54 °F 46 °F (2001)
Cooling Degree Days 1    
Growing Degree Days 16 (Base 50)    
Moisture  
Dew Point 32 °F    
Average Humidity 33    
Maximum Humidity 52    
Minimum Humidity 17    
Precipitation  
Precipitation 0.00 in - - ()
Sea Level Pressure  
Sea Level Pressure 30.19 in    
Wind  
Wind Speed 6 mph (ESE)    
Max Wind Speed 10 mph    
Max Gust Speed 17 mph    
Visibility 10 miles    
Events      
Averages and records for this station are not official NWS values.
T = Trace of Precipitation, MM = Missing Value Source: NWS Daily Summary

Daily Weather History Graph

Daily Weather History Graph

Search for Another Location

Airport or City:

Trip Planner

Search our weather history database for the weather conditions in past years. The results will help you decide how hot, cold, wet, or windy it might be!

Date:

Astronomy

Oct. 01, 2011 Rise Set
Actual Time 7:30 AM CDT 7:20 PM CDT
Civil Twilight 7:05 AM CDT 7:45 PM CDT
Nautical Twilight 6:36 AM CDT 8:14 PM CDT
Astronomical Twilight 6:06 AM CDT 8:44 PM CDT
Moon 12:25 PM CDT (10/1) 10:32 PM CDT (10/1)
Length of Visible Light 12h 40m
Length of Day
11h 49m
Waxing Crescent, 24% of the Moon is Illuminated
Oct 1
Waxing Crescent
Oct 3
First Quarter
Oct 11
Full
Oct 19
Last Quarter
Oct 26
New

Hourly Weather History & Observations

Time (CDT) Temp. Dew Point Humidity Pressure Visibility Wind Dir Wind Speed Gust Speed Precip Events Conditions
12:53 AM 54.0 °F 28.9 °F 38% 30.17 in 10.0 mi East 5.8 mph - N/A   Clear
1:53 AM 53.1 °F 30.0 °F 41% 30.17 in 10.0 mi ENE 6.9 mph - N/A   Clear
2:53 AM 52.0 °F 30.9 °F 45% 30.18 in 10.0 mi East 4.6 mph - N/A   Clear
3:53 AM 52.0 °F 32.0 °F 47% 30.18 in 10.0 mi ENE 5.8 mph - N/A   Clear
4:53 AM 52.0 °F 33.1 °F 49% 30.18 in 10.0 mi ENE 4.6 mph - N/A   Clear
5:53 AM 52.0 °F 33.1 °F 49% 30.20 in 10.0 mi ENE 4.6 mph - N/A   Clear
6:53 AM 52.0 °F 33.1 °F 49% 30.21 in 10.0 mi ENE 3.5 mph - N/A   Clear
7:53 AM 50.0 °F 33.1 °F 52% 30.24 in 10.0 mi ENE 3.5 mph - N/A   Clear
8:53 AM 57.0 °F 34.0 °F 42% 30.24 in 10.0 mi East 3.5 mph - N/A   Clear
9:53 AM 64.4 °F 35.6 °F 34% 30.28 in 10.0 mi SE 5.8 mph - N/A   Clear
10:53 AM 70.0 °F 36.0 °F 29% 30.25 in 10.0 mi SE 6.9 mph - N/A   Clear
11:53 AM 75.0 °F 34.0 °F 22% 30.24 in 10.0 mi SSE 10.4 mph 17.3 mph N/A   Clear
12:53 PM 75.9 °F 33.1 °F 21% 30.22 in 10.0 mi South 8.1 mph - N/A   Clear
1:53 PM 78.1 °F 33.1 °F 19% 30.20 in 10.0 mi SSE 8.1 mph - N/A   Clear
2:53 PM 79.0 °F 33.1 °F 19% 30.17 in 10.0 mi SSE 6.9 mph 17.3 mph N/A   Clear
3:53 PM 82.0 °F 33.1 °F 17% 30.16 in 10.0 mi SSE 8.1 mph 16.1 mph N/A   Clear
4:53 PM 80.1 °F 33.1 °F 18% 30.14 in 10.0 mi South 5.8 mph - N/A   Clear
5:53 PM 80.1 °F 33.1 °F 18% 30.13 in 10.0 mi SSE 8.1 mph - N/A   Clear
6:53 PM 78.1 °F 32.0 °F 19% 30.14 in 10.0 mi South 8.1 mph - N/A   Clear
8:53 PM 64.0 °F 30.9 °F 29% 30.17 in 10.0 mi SE 8.1 mph - N/A   Clear
9:53 PM 62.1 °F 30.9 °F 31% 30.17 in 10.0 mi SE 9.2 mph - N/A   Clear
10:53 PM 60.8 °F 30.2 °F 31% 30.19 in 10.0 mi ESE 9.2 mph - N/A   Clear
11:53 PM 59.0 °F 30.2 °F 34% 30.19 in 10.0 mi ESE 6.9 mph - N/A   Clear